EHI
0 0 0 0 0 0 0 1 1 1 0 0 0 0 0 0 0 0 0 0 0 0 0 0 0 0 0 1 2 3 1 0 0 0 0 0 0 0 0 0 0 0 0
0 0 0 0 0 0 0 0 0 0 0 0 0 0 0 0 0 0 0 0 0 0 0 0 0 0 0 1 2 3 2 1 0 0 0 0 0 0 0 0 0 0 0
0 0 0 0 0 0 0 0 0 0 0 0 0 0 0 0 0 0 0 0 0 0 0 0 0 1 1 1 2 2 3 3 1 1 1 1 0 0 0 0 0 0 0
0 0 0 0 0 0 0 0 0 0 0 0 0 0 0 0 0 0 0 0 0 0 0 0 0 1 2 2 2 2 3 4 3 3 2 2 1 0 0 0 0 0 0
0 0 0 0 0 0 0 0 0 0 0 0 0 0 0 0 0 0 0 0 0 0 0 0 0 0 1 2 3 2 2 4 4 3 3 2 1 0 0 0 0 0 0
0 0 0 0 0 0 0 0 0 0 0 0 0 0 0 0 0 0 0 0 0 0 0 0 0 0 0 1 2 3 3 3 3 2 3 2 1 0 0 0 0 0 0
0 0 0 0 0 0 0 0 0 0 0 0 0 0 0 0 0 0 0 0 0 0 0 0 0 0 0 0 1 2 3 3 2 2 3 3 1 1 0 0 0 0 0
0 0 0 0 0 0 0 0 0 0 0 0 0 0 0 0 0 0 0 0 0 0 0 0 0 0 0 0 0 1 2 2 2 3 3 3 3 2 1 0 0 0 0
0 0 0 0 0 0 0 0 0 0 0 0 0 0 0 0 0 0 0 0 0 0 0 0 0 0 0 0 0 0 1 2 2 3 3 3 3 3 1 0 0 0 0
0 0 0 0 0 0 0 0 0 0 0 0 0 0 0 0 0 0 0 0 0 0 0 0 0 0 0 0 0 0 0 1 1 2 3 3 3 3 2 1 1 1 0
0 0 0 0 0 0 0 0 0 0 0 0 0 0 0 0 0 0 0 0 0 0 0 0 0 0 0 0 0 0 0 0 0 1 1 2 3 3 3 3 2 1 1
0 0 0 0 0 0 0 0 0 0 0 0 0 0 0 0 0 0 0 0 0 0 0 0 0 0 0 0 0 0 0 0 0 0 0 1 2 3 3 2 2 1 0
0 0 0 0 0 0 0 0 0 0 0 0 0 0 0 0 0 0 0 0 0 0 0 0 0 0 0 0 0 0 0 0 0 0 0 0 1 2 1 1 1 0 0
0 0 0 0 0 0 0 0 0 0 0 0 0 0 0 0 0 0 0 0 0 0 0 0 0 0 0 0 0 0 0 0 0 0 0 0 0 0 0 0 0 0 0
0 0 0 0 0 0 0 0 0 0 0 0 0 0 0 0 0 0 0 0 0 0 0 0 0 0 0 0 0 0 0 0 0 0 0 0 0 0 0 0 0 0 0
0 0 0 0 0 0 0 0 0 0 0 0 0 0 0 0 0 0 0 0 0 0 0 0 0 0 0 0 0 0 0 0 0 0 0 0 0 0 0 0 0 0 0
0 0 0 0 0 0 0 0 0 0 0 0 0 0 0 0 0 0 0 0 0 0 0 0 0 0 0 0 0 0 0 0 0 0 0 0 0 0 0 0 0 0 0
0 0 0 0 0 0 0 0 0 0 0 0 0 0 0 0 0 0 0 0 0 0 0 0 0 0 0 0 0 0 0 0 0 0 0 0 0 0 0 0 0 0 0
0 0 0 0 0 0 0 0 0 0 0 0 0 0 0 0 0 0 0 0 0 0 0 0 0 0 0 0 0 0 0 0 0 0 0 0 0 0 0 0 0 0 0
0 0 0 0 0 0 0 0 0 0 0 0 0 0 0 0 0 0 0 0 0 0 0 0 0 0 0 0 0 0 0 0 0 0 0 0 0 0 0 0 0 0 0
0 0 0 0 0 0 0 0 0 0 0 0 0 0 0 0 0 0 0 0 0 0 0 0 0 0 0 0 0 0 0 0 0 0 0 0 0 0 0 0 0 0 0
0 0 0 0 0 0 0 0 0 0 0 0 0 0 0 0 0 0 0 0 0 0 0 0 0 0 0 0 0 0 0 0 0 0 0 0 0 0 0 0 0 0 0
0 0 0 0 0 0 0 0 0 0 0 0 0 0 0 0 0 0 0 0 0 0 0 0 0 0 0 0 0 0 0 0 0 0 0 0 0 0 0 0 0 0 0
0 0 0 0 0 0 0 0 0 0 0 0 0 0 0 0 0 0 0 0 0 0 0 0 0 0 0 0 0 0 0 0 0 0 0 0 0 0 0 0 0 0 0
0 0 0 0 0 0 0 0 0 0 0 0 0 0 0 0 0 0 0 0 0 0 0 0 0 0 0 0 0 0 0 0 0 0 0 0 0 0 0 0 0 0 0
0 0 0 0 0 0 0 0 0 0 0 0 0 0 0 0 0 0 0 0 0 0 0 0 0 0 0 0 0 0 0 0 0 0 0 0 0 0 0 0 0 0 0
Wind_Speed
2 2 1 1 1 1 1 1 2 2 2 2 2 1 0 0 0 0 1 1 1 2 3 4 4 5 6 7 7 7 7 6 7 7 8 7 6 6 6 6 6 5 5
2 2 2 2 1 1 1 1 1 1 2 2 2 1 1 0 0 0 0 1 1 1 2 4 4 4 5 6 7 7 7 7 7 7 7 7 6 6 6 6 6 5 5
3 2 2 2 2 2 1 1 1 1 1 2 2 2 1 0 0 0 0 0 1 1 1 3 4 4 5 6 6 7 7 7 7 7 7 6 6 5 5 5 5 6 5
3 2 2 2 3 2 1 1 1 1 2 1 1 2 1 1 1 1 0 0 0 1 1 2 2 3 4 5 6 7 7 7 7 7 7 6 6 5 6 5 5 5 5
4 2 2 2 2 1 1 1 1 1 1 1 1 1 1 1 1 1 1 1 1 1 1 1 3 3 3 4 5 6 7 7 7 7 6 6 6 5 5 5 5 5 4
4 3 2 2 2 1 2 2 2 1 0 1 1 2 2 2 1 1 1 1 1 1 1 1 1 2 3 4 5 6 6 7 7 7 7 6 6 5 5 5 5 5 4
4 3 3 3 2 1 1 1 1 1 1 1 1 2 2 2 1 1 1 0 0 0 0 1 1 1 1 4 4 5 6 6 7 7 7 6 6 5 5 5 5 4 4
4 4 3 2 2 2 2 2 1 1 1 1 0 0 1 2 2 2 1 1 1 1 1 1 1 1 1 1 2 4 5 6 7 7 7 7 6 6 5 5 5 5 4
4 4 4 3 2 2 1 2 1 0 1 2 1 1 1 2 2 2 2 1 1 1 1 1 1 1 2 2 2 3 3 5 7 7 7 7 7 7 6 6 6 5 5
4 4 4 3 2 2 2 2 2 1 1 2 2 2 2 1 1 2 2 2 2 2 2 2 2 2 2 2 2 3 4 4 5 6 7 7 7 8 8 7 7 6 5
4 4 4 4 3 2 3 3 2 2 2 2 2 2 2 2 1 2 3 3 3 2 2 2 2 2 2 2 3 3 4 4 5 6 6 7 7 8 8 8 7 6 6
4 5 5 4 4 3 3 3 3 3 3 3 2 2 2 2 2 2 3 3 3 3 3 2 2 2 2 2 3 4 4 5 5 6 6 7 7 7 7 8 8 7 6
4 5 5 5 4 4 4 4 3 4 4 4 3 3 3 3 2 2 3 3 3 3 2 2 2 2 2 2 2 3 4 6 6 7 7 7 6 6 6 7 8 8 7
5 6 6 5 6 5 5 4 4 4 4 4 5 4 3 3 3 3 3 2 3 3 3 3 2 2 2 2 3 3 3 5 5 6 7 6 6 6 6 6 7 7 7
5 6 6 6 6 6 5 5 4 5 4 4 5 5 4 4 3 3 3 3 4 4 5 3 2 2 2 2 3 3 3 4 5 6 5 5 5 6 6 6 6 6 6
6 6 6 6 6 6 5 5 5 5 5 5 4 5 5 4 4 3 3 4 4 4 5 3 3 2 3 2 3 2 3 4 5 6 5 5 6 6 6 6 5 6 6
6 6 6 6 7 6 6 5 6 6 6 6 5 6 6 5 4 4 4 4 4 4 5 4 3 2 3 3 2 2 2 3 3 5 6 5 5 6 6 6 6 6 6
7 7 7 7 7 7 6 6 7 7 7 7 7 7 7 5 6 5 4 5 5 4 5 6 4 3 3 3 3 2 2 3 3 4 5 5 5 6 6 6 6 6 6
7 7 7 7 7 7 7 7 7 7 7 8 8 8 7 7 7 5 6 6 5 5 4 5 5 3 3 2 2 2 2 2 2 3 4 5 5 6 5 5 5 6 6
7 7 8 8 8 8 8 8 8 8 7 7 8 8 8 8 9 8 7 7 6 5 5 5 4 3 3 3 2 2 2 2 2 2 3 3 4 5 5 5 5 5 5
8 8 8 8 8 7 7 8 8 8 8 7 8 8 8 10 11 9 8 7 6 6 5 5 5 4 4 3 4 3 3 2 2 2 2 2 2 2 3 4 5 5 5
7 8 8 8 9 8 12 14 10 7 7 8 8 7 7 9 10 13 13 11 10 8 7 6 6 6 6 5 4 4 3 3 3 2 2 3 2 3 3 3 4 6 6
7 8 8 8 9 10 14 14 13 8 7 7 7 7 7 7 9 7 9 11 11 12 12 9 8 9 7 7 6 6 5 4 4 3 2 3 2 3 3 3 5 6 6
7 7 8 8 9 11 15 14 13 8 6 7 8 7 7 7 7 7 7 7 7 7 9 8 8 8 7 6 7 7 6 4 3 2 3 3 3 3 3 2 4 6 6
7 7 8 8 8 10 14 13 12 6 5 6 7 7 7 7 9 10 8 7 7 6 7 8 9 8 9 8 7 4 5 4 4 3 3 3 2 2 2 3 4 5 5
7 8 8 7 8 9 13 13 11 4 5 5 5 6 9 9 10 11 8 7 7 6 5 5 5 5 5 6 8 6 6 5 4 3 3 3 3 2 1 2 2 2 3
Wind_Direction
10 358 2 357 360 9 7 350 354 351 351 349 349 7 13 349 33 16 349 55 139 161 167 165 167 170 170 165 162 155 152 153 157 155 152 149 150 146 144 141 141 141 139
9 354 353 347 340 351 340 327 332 342 334 342 345 345 321 303 88 65 4 22 23 184 181 182 181 183 183 176 171 165 161 161 157 155 153 151 154 157 157 157 158 151 144
8 358 350 350 337 336 337 339 350 3 352 353 342 331 311 296 216 181 155 9 337 313 225 203 194 195 196 189 181 175 171 171 167 162 160 160 159 156 155 159 160 152 146
4 2 353 347 336 342 349 334 5 15 5 351 334 321 319 291 232 201 185 202 256 299 261 223 216 210 209 201 192 185 178 174 169 167 167 169 169 165 163 158 150 146 150
357 355 343 337 335 352 1 343 356 22 360 349 329 323 318 296 252 221 212 209 217 229 247 240 230 220 216 212 203 196 186 183 178 172 169 169 164 164 166 165 160 155 157
353 350 341 344 351 4 358 3 354 348 337 344 346 342 322 305 298 250 241 243 230 225 229 230 235 235 219 215 213 205 192 189 184 177 168 166 166 164 166 165 166 169 168
352 349 342 342 348 351 335 349 5 355 347 358 27 347 333 322 304 298 275 253 266 279 278 250 236 229 234 219 208 201 197 192 185 179 176 174 172 173 175 177 173 173 180
346 347 342 332 327 331 342 347 5 349 313 332 39 4 327 327 331 304 273 232 248 270 274 264 260 219 201 199 215 202 207 203 198 192 188 186 188 188 189 192 191 190 190
335 332 329 324 323 318 298 294 296 307 283 288 265 192 188 237 312 313 310 296 287 281 270 263 251 249 215 199 208 211 208 212 207 204 200 198 199 201 202 204 206 206 205
326 324 324 320 312 308 300 283 297 292 258 276 290 278 252 201 206 282 309 318 315 287 270 261 257 243 223 206 204 200 202 209 213 214 212 209 209 210 210 211 212 214 216
325 320 316 315 307 300 295 291 284 280 265 258 265 281 286 279 239 227 266 296 315 304 292 268 253 248 228 214 207 201 200 209 219 224 225 221 218 216 215 213 214 217 221
324 325 317 309 302 294 288 282 275 268 263 260 260 261 254 245 234 229 248 271 282 289 292 275 254 252 238 217 221 205 205 210 223 230 233 232 228 225 223 221 220 222 223
319 317 316 307 298 290 281 277 271 262 252 245 244 250 252 252 247 238 240 258 270 281 279 279 265 260 254 233 229 217 213 217 222 232 235 237 237 236 233 229 227 227 227
300 300 303 305 302 292 286 276 270 263 258 249 253 248 253 251 246 235 229 233 262 270 266 260 282 262 259 242 236 227 225 221 226 234 237 241 241 239 241 238 236 233 230
303 303 301 301 300 297 287 274 266 263 258 249 248 247 251 252 242 238 229 218 224 247 257 249 251 264 264 249 248 231 229 230 230 235 239 241 240 237 237 237 236 236 232
304 301 301 297 295 294 293 281 268 262 257 255 250 247 248 251 242 235 231 231 229 232 252 247 244 261 267 264 253 245 233 243 236 233 238 241 235 233 234 236 234 233 229
304 301 296 295 293 292 290 288 278 268 258 259 257 251 249 247 242 239 236 234 234 225 244 264 258 258 259 253 259 248 250 235 229 232 235 235 238 239 235 229 229 227 225
302 299 296 292 289 288 285 279 278 275 261 256 255 252 253 251 243 240 235 234 234 227 226 249 257 247 252 246 237 231 258 251 229 229 228 234 243 242 234 229 227 224 225
303 300 298 290 286 283 280 275 273 270 266 258 251 247 247 243 245 243 239 234 233 236 226 231 246 241 247 239 236 248 251 261 249 233 220 230 244 242 234 231 226 222 222
302 300 297 293 287 283 278 274 272 268 264 264 257 247 244 239 238 236 237 233 227 228 225 224 235 233 232 228 211 222 243 251 260 258 234 230 242 249 243 237 229 222 220
304 301 299 297 292 284 274 272 269 268 264 264 262 256 249 247 244 240 238 230 222 223 224 223 230 229 222 207 214 214 229 242 262 242 232 236 227 232 240 240 232 223 220
304 304 301 298 294 289 288 287 282 270 264 262 262 259 257 254 251 249 246 244 234 226 224 224 232 228 226 215 210 209 210 218 251 230 207 245 221 228 235 231 235 234 227
304 303 301 299 295 293 294 292 288 282 265 259 259 256 258 256 256 251 250 249 247 241 234 227 230 227 222 212 203 210 216 222 233 226 209 236 219 230 235 240 240 236 235
301 300 301 300 298 296 299 296 293 286 268 259 256 251 250 250 246 249 243 242 244 244 237 230 233 232 226 212 209 214 210 224 242 239 222 234 230 229 242 240 240 236 237
302 301 300 300 300 300 303 300 296 285 273 267 264 257 251 247 250 251 244 241 246 249 249 239 240 237 229 228 221 201 195 201 231 233 216 216 216 231 236 233 236 239 243
300 303 304 303 300 299 306 306 303 286 282 276 269 261 259 256 253 254 241 233 238 240 236 237 240 244 232 222 227 221 209 208 211 225 207 197 196 177 247 250 232 231 238